Temp
14 14 15 16 17 17 17 16 12 15 17 18 19 17 17 14 13 16 15 11 10 10 10 9 9 8 10 10 11 11 11 11 11 10 10 10 8 10 8 10 11 11 11 11
14 15 15 16 17 17 17 15 15 14 18 19 19 18 16 16 17 17 16 13 11 10 10 10 9 8 10 11 11 11 11 11 10 10 10 10 9 9 10 11 11 11 11 11
15 15 16 16 17 17 18 17 16 17 17 19 19 19 16 15 14 14 14 14 11 11 10 10 10 10 8 11 11 11 11 11 11 11 11 11 11 11 11 11 11 11 12 12
15 16 16 17 17 17 18 18 18 18 19 20 20 20 19 17 15 14 13 12 12 10 10 10 11 11 10 11 11 11 11 11 11 11 11 11 11 11 11 12 12 12 12 12
15 16 16 17 17 18 18 19 20 20 20 20 20 20 20 19 17 15 15 13 11 11 10 10 12 12 10 9 12 12 11 11 11 12 12 12 12 12 12 12 12 13 12 12
15 16 16 17 17 18 18 19 19 20 20 21 21 21 22 20 19 17 16 15 13 12 11 11 12 12 10 9 12 12 12 12 12 12 12 12 12 12 13 13 13 13 13 13
15 16 17 17 18 18 18 19 20 20 20 21 21 21 20 20 17 15 16 16 14 13 12 11 11 11 11 10 12 12 12 12 13 13 13 13 13 13 13 13 13 13 13 13
15 16 16 17 18 18 19 19 20 19 20 22 20 21 20 19 17 16 16 16 15 14 13 12 11 11 12 11 12 13 13 13 13 14 14 13 13 14 14 13 13 13 13 13
15 16 17 17 18 18 18 19 19 20 21 21 16 19 17 17 19 20 18 17 16 15 14 12 11 11 13 13 14 14 14 13 14 14 14 14 14 14 14 14 13 13 13 13
14 16 17 18 18 18 18 19 19 19 19 19 14 15 17 18 19 20 20 18 17 15 14 13 12 12 14 14 14 14 14 14 15 15 15 15 15 15 14 14 14 14 14 13
14 14 16 18 18 18 18 18 19 20 20 22 19 17 19 18 18 21 20 19 18 16 15 14 12 13 15 14 14 14 14 14 15 15 15 15 15 15 15 14 14 14 14 13
13 14 15 17 18 18 18 18 19 20 20 20 20 19 18 17 18 20 20 19 18 17 15 14 13 12 15 15 15 15 15 15 15 15 15 16 15 15 15 15 14 14 14 14
10 13 15 16 18 19 18 18 18 19 20 20 21 20 18 17 16 20 20 19 18 16 15 14 13 12 15 16 15 15 15 16 16 16 16 16 16 16 16 15 14 14 14 14
7 10 13 17 17 19 18 18 18 19 20 20 20 20 19 18 18 20 19 18 17 16 15 14 14 15 16 16 16 16 16 16 16 16 16 16 16 16 16 15 14 14 14 14
7 9 11 13 15 18 19 18 18 19 19 20 21 21 19 18 14 18 18 17 16 15 15 14 16 17 17 17 17 16 16 16 16 16 16 16 16 16 16 15 15 14 15 14
7 9 10 12 14 16 18 19 18 19 19 20 20 19 18 19 19 17 18 17 16 15 15 15 16 17 17 17 17 17 17 17 16 17 16 16 16 16 16 16 15 15 15 14
5 7 9 11 13 15 17 19 19 18 19 19 20 18 18 17 15 17 17 17 16 16 16 17 18 18 18 18 18 17 17 17 17 17 17 17 16 16 16 16 16 15 15 14
4 5 7 10 12 14 16 18 19 19 19 19 19 19 18 18 16 17 18 17 16 18 17 18 18 18 18 18 17 17 17 17 17 17 17 17 17 17 16 16 16 16 16 15
3 5 7 9 12 14 16 17 18 19 19 19 19 19 18 16 17 17 18 18 17 19 19 19 18 18 18 18 18 17 17 17 17 17 17 17 17 17 17 17 16 16 16 15
4 5 6 9 12 14 15 17 18 18 18 19 19 19 19 19 17 15 17 18 18 19 19 19 18 18 18 18 18 18 18 17 17 17 18 17 17 17 17 17 16 16 16 16
5 5 6 8 10 13 15 16 17 17 17 17 17 18 19 18 18 17 18 19 18 18 18 18 18 18 19 19 18 18 18 18 19 18 18 18 17 17 17 17 17 17 17 16
6 6 7 8 10 12 12 14 14 11 13 14 15 16 17 18 16 15 15 17 18 18 18 17 17 18 19 19 18 18 18 18 18 18 18 18 18 18 17 17 17 17 17 17
7 7 8 8 10 11 10 11 10 10 12 14 15 15 16 16 16 16 16 16 17 17 18 18 18 18 18 18 19 18 19 18 18 18 18 18 18 18 18 17 17 17 17 17
8 8 8 9 9 10 9 9 10 11 11 12 12 14 15 16 16 16 16 17 17 17 17 17 17 18 18 18 18 18 18 18 19 18 18 18 18 18 18 18 18 17 17 17
2 6 6 8 8 8 8 8 9 10 10 8 12 14 15 15 15 16 16 16 17 18 17 17 17 17 18 18 18 18 18 18 19 19 19 19 19 19 18 18 18 18 18 17
0 1 3 3 3 4 5 7 8 10 8 10 12 13 13 14 14 14 15 16 16 17 18 18 18 18 18 18 19 19 18 18 19 19 19 19 20 19 19 19 18 18 18 17
Height
3152 3154 3152 3154 3155 3154 3152 3153 3155 3158 3156 3152 3153 3151 3151 3154 3158 3160 3161 3166 3167 3170 3175 3179 3182 3185 3187 3190 3194 3198 3201 3204 3207 3210 3212 3214 3215 3217 3218 3218 3220 3220 3220 3220
3147 3144 3148 3152 3152 3153 3150 3152 3155 3153 3144 3152 3152 3151 3148 3153 3153 3155 3157 3159 3165 3167 3171 3174 3178 3181 3184 3187 3192 3196 3199 3203 3206 3209 3211 3213 3215 3218 3218 3220 3221 3222 3223 3223
3136 3139 3145 3147 3147 3149 3149 3148 3148 3149 3143 3148 3148 3149 3150 3150 3153 3151 3154 3156 3161 3165 3165 3170 3174 3177 3182 3184 3190 3194 3198 3202 3205 3207 3210 3214 3216 3218 3220 3221 3222 3223 3224 3224
3130 3135 3138 3139 3141 3144 3143 3143 3142 3144 3142 3140 3143 3144 3150 3148 3149 3150 3149 3152 3154 3160 3166 3165 3169 3173 3179 3181 3186 3191 3196 3199 3203 3206 3209 3213 3215 3217 3219 3221 3222 3224 3225 3225
3122 3127 3130 3131 3134 3139 3139 3138 3138 3138 3138 3138 3137 3139 3135 3138 3141 3143 3148 3148 3151 3155 3160 3161 3165 3169 3175 3180 3183 3188 3193 3197 3201 3204 3208 3212 3215 3217 3219 3221 3223 3224 3226 3226
3117 3121 3124 3126 3130 3133 3137 3136 3136 3135 3136 3132 3131 3130 3126 3130 3138 3141 3145 3148 3149 3151 3156 3158 3161 3166 3172 3176 3180 3185 3190 3195 3199 3203 3207 3211 3213 3216 3218 3220 3223 3225 3226 3227
3112 3113 3115 3121 3124 3127 3131 3132 3131 3131 3131 3125 3124 3124 3124 3127 3133 3139 3142 3145 3148 3150 3153 3155 3157 3160 3167 3171 3176 3182 3187 3192 3197 3201 3205 3209 3212 3216 3218 3221 3223 3225 3226 3226
3105 3105 3108 3111 3115 3120 3122 3125 3123 3124 3120 3118 3120 3120 3121 3123 3128 3124 3133 3140 3145 3148 3150 3153 3156 3158 3162 3167 3172 3178 3184 3189 3194 3198 3203 3207 3211 3215 3218 3221 3223 3225 3226 3226
3098 3099 3103 3106 3110 3115 3116 3116 3122 3119 3116 3116 3128 3125 3134 3127 3127 3128 3131 3136 3139 3143 3147 3150 3154 3156 3159 3164 3169 3175 3181 3186 3191 3197 3201 3206 3210 3213 3217 3220 3223 3224 3225 3225
3095 3096 3097 3099 3106 3107 3109 3117 3118 3114 3112 3114 3126 3129 3125 3128 3128 3127 3130 3129 3133 3139 3144 3146 3150 3152 3156 3161 3167 3172 3178 3184 3189 3194 3199 3204 3208 3212 3215 3218 3221 3223 3224 3225
3092 3093 3090 3093 3092 3098 3105 3106 3108 3111 3109 3106 3117 3123 3116 3123 3121 3126 3127 3125 3128 3133 3139 3143 3146 3148 3153 3158 3163 3169 3174 3180 3186 3192 3197 3202 3207 3211 3214 3216 3219 3221 3223 3223
3083 3086 3084 3081 3087 3093 3097 3101 3104 3103 3104 3104 3106 3114 3116 3116 3116 3117 3120 3122 3125 3130 3136 3139 3144 3146 3150 3155 3160 3165 3171 3176 3183 3189 3194 3200 3205 3209 3212 3214 3217 3220 3221 3221
3077 3076 3079 3079 3079 3082 3087 3093 3098 3101 3103 3102 3105 3109 3118 3114 3111 3113 3118 3118 3121 3126 3133 3136 3140 3143 3147 3152 3157 3162 3168 3174 3180 3186 3192 3197 3202 3206 3210 3212 3215 3217 3218 3218
3074 3073 3073 3071 3073 3077 3082 3088 3092 3095 3095 3099 3101 3106 3112 3113 3112 3115 3116 3117 3118 3123 3128 3132 3136 3140 3144 3150 3155 3160 3166 3171 3178 3184 3189 3194 3200 3204 3207 3209 3212 3213 3214 3215
3075 3073 3074 3071 3071 3074 3076 3082 3086 3087 3092 3093 3097 3098 3102 3104 3107 3114 3114 3117 3117 3121 3126 3129 3133 3137 3142 3147 3153 3158 3163 3169 3175 3181 3186 3192 3197 3200 3203 3205 3208 3209 3211 3213
3072 3072 3073 3067 3070 3068 3068 3073 3080 3083 3088 3091 3093 3095 3098 3101 3109 3110 3114 3114 3114 3118 3123 3126 3131 3135 3140 3145 3150 3155 3160 3166 3171 3178 3184 3189 3193 3196 3199 3201 3204 3204 3207 3212
3072 3072 3072 3065 3069 3067 3062 3063 3071 3080 3083 3087 3088 3093 3096 3100 3103 3106 3115 3114 3113 3116 3120 3124 3129 3133 3138 3143 3149 3153 3158 3164 3169 3175 3180 3184 3188 3192 3195 3197 3198 3200 3202 3205
3071 3072 3073 3069 3070 3063 3060 3062 3068 3073 3080 3083 3089 3093 3093 3098 3105 3110 3113 3113 3114 3115 3118 3123 3128 3132 3137 3143 3147 3152 3156 3160 3166 3171 3176 3180 3184 3187 3190 3192 3193 3195 3197 3198
3072 3074 3073 3070 3067 3066 3061 3061 3066 3068 3073 3080 3085 3091 3091 3094 3103 3104 3110 3113 3114 3115 3118 3122 3127 3131 3135 3140 3145 3149 3153 3158 3162 3167 3171 3176 3179 3182 3185 3186 3189 3191 3190 3191
3070 3072 3074 3069 3064 3057 3062 3062 3066 3067 3070 3076 3081 3085 3090 3091 3094 3106 3100 3115 3115 3116 3119 3122 3126 3130 3134 3138 3142 3146 3150 3154 3158 3162 3167 3171 3174 3177 3179 3181 3184 3185 3183 3185
3063 3066 3067 3068 3065 3061 3063 3063 3065 3067 3075 3069 3072 3077 3085 3085 3091 3099 3104 3114 3114 3115 3117 3121 3125 3128 3132 3136 3140 3144 3147 3150 3155 3160 3163 3165 3168 3171 3174 3176 3177 3177 3176 3179
3054 3060 3061 3066 3064 3061 3053 3055 3059 3062 3059 3061 3066 3069 3074 3085 3080 3094 3095 3103 3111 3113 3116 3119 3122 3124 3129 3132 3136 3140 3142 3147 3152 3154 3157 3159 3161 3164 3166 3168 3169 3169 3171 3171
3047 3050 3055 3059 3059 3058 3054 3054 3054 3055 3059 3059 3062 3067 3071 3078 3084 3092 3097 3104 3103 3106 3110 3116 3119 3122 3125 3127 3131 3134 3138 3142 3145 3147 3149 3151 3154 3156 3159 3159 3161 3163 3164 3163
3039 3045 3049 3056 3055 3054 3054 3051 3055 3056 3056 3058 3059 3062 3067 3073 3077 3081 3088 3092 3095 3098 3103 3109 3113 3116 3120 3123 3126 3130 3133 3135 3136 3138 3141 3143 3145 3148 3150 3151 3153 3155 3156 3155
3034 3036 3041 3047 3050 3050 3049 3050 3052 3055 3057 3054 3056 3060 3064 3067 3071 3076 3080 3084 3089 3093 3097 3101 3105 3109 3113 3117 3121 3123 3125 3127 3128 3129 3131 3133 3136 3139 3141 3142 3145 3146 3147 3148
3034 3034 3035 3038 3043 3045 3046 3049 3049 3052 3052 3051 3053 3056 3060 3064 3069 3073 3076 3079 3082 3086 3091 3095 3098 3101 3105 3108 3112 3115 3117 3118 3119 3121 3122 3124 3127 3129 3131 3132 3135 3138 3140 3141
Wind_Speed
25 27 28 24 23 23 17 26 13 27 23 14 7 15 12 19 18 6 14 27 25 27 33 28 27 25 22 25 21 22 18 16 15 16 13 11 11 9 4 8 8 9 11 12
30 36 30 25 25 24 12 15 29 12 7 12 6 15 21 22 14 9 5 23 28 23 29 31 30 28 24 26 23 23 21 16 16 17 16 14 14 5 9 9 7 8 9 12
37 36 29 28 28 27 26 15 30 26 15 13 10 12 33 23 23 17 13 13 29 26 26 29 33 31 25 25 24 23 20 18 19 19 19 12 10 10 7 6 7 6 8 12
38 34 33 32 32 28 29 29 27 12 11 20 12 13 10 24 24 24 21 23 21 32 34 31 31 31 30 25 25 22 20 20 20 21 20 17 14 12 11 9 8 6 7 9
36 37 37 37 36 28 31 25 21 19 15 17 16 15 20 24 31 27 27 26 25 27 32 33 30 29 30 27 25 24 22 22 22 23 22 21 17 14 12 9 5 3 4 7
35 29 36 36 32 30 27 27 26 21 19 20 23 23 25 28 28 25 26 27 26 25 29 32 19 29 31 29 28 26 25 24 24 25 24 22 20 17 15 12 7 2 2 0
32 36 34 36 35 33 28 30 25 17 19 14 23 25 8 20 22 10 27 29 28 28 28 32 25 24 24 30 29 28 27 27 27 27 26 24 21 19 15 11 7 2 4 8
34 32 37 31 40 37 36 34 28 17 15 17 6 15 9 11 11 22 26 27 28 29 29 32 31 29 27 29 28 29 29 30 30 30 28 26 24 21 18 13 9 4 5 10
32 39 26 38 33 37 37 38 35 38 31 10 12 14 12 15 11 11 29 25 29 30 30 32 34 34 29 29 28 29 30 32 32 32 32 29 26 23 19 15 10 7 7 10
36 33 34 31 35 35 40 32 33 37 23 11 3 7 27 18 17 15 15 26 25 29 30 30 31 32 27 28 28 30 31 33 34 35 34 31 28 23 20 17 11 9 9 10
34 40 34 34 42 42 38 37 36 37 34 14 12 10 17 25 26 24 19 29 25 27 32 31 30 27 24 28 31 32 33 35 36 39 36 33 28 24 21 18 14 10 10 13
22 40 41 41 38 38 39 40 38 35 29 31 19 8 21 17 27 21 16 31 27 26 31 31 29 30 25 28 32 34 34 35 37 39 38 33 29 24 21 19 16 12 11 13
10 21 31 39 31 41 45 41 41 41 33 33 21 9 15 19 33 15 21 31 30 29 31 31 29 32 26 29 32 33 34 35 37 38 39 33 28 25 22 21 17 14 13 14
14 17 23 29 33 33 39 41 40 41 36 31 32 18 23 16 18 11 26 28 29 30 33 32 29 28 25 27 30 32 33 33 37 38 39 32 28 25 23 22 19 17 15 15
11 19 22 30 32 32 40 36 41 43 41 38 32 27 19 18 20 13 23 26 28 32 34 32 27 25 23 25 27 30 31 33 35 36 35 31 27 25 25 24 22 20 17 15
9 19 22 32 29 33 31 40 39 39 40 39 36 12 22 23 16 8 22 26 28 30 32 32 25 23 22 23 25 27 29 32 34 34 30 28 28 27 27 26 25 25 20 11
10 11 16 31 25 29 37 33 40 40 40 38 40 23 21 12 19 15 24 25 26 26 29 27 22 21 21 20 20 23 25 29 31 31 32 30 29 29 29 28 29 27 23 20
13 12 16 25 24 23 27 27 28 37 39 36 36 28 32 17 21 17 19 23 24 22 22 22 22 19 20 20 19 20 23 26 29 29 30 31 31 31 31 32 32 29 27 26
16 15 14 23 27 24 28 28 23 28 35 39 32 33 26 21 31 32 27 21 22 19 19 21 22 22 23 21 20 20 22 22 25 29 30 30 31 32 32 34 33 29 31 29
22 20 20 15 25 24 28 26 18 17 20 28 35 31 28 27 11 32 26 20 11 14 18 19 20 21 23 24 24 23 22 24 24 22 25 29 33 35 35 36 33 32 35 32
28 27 26 22 17 20 23 25 22 19 11 11 15 35 30 24 42 28 22 18 16 12 12 12 17 22 21 22 23 24 26 24 21 26 30 34 36 37 36 37 37 36 37 34
30 30 27 27 18 19 13 10 18 8 9 13 12 14 19 19 28 34 16 10 19 21 21 21 20 19 20 20 22 26 30 28 28 28 29 31 34 36 39 41 41 39 37 36
39 36 29 29 28 2 6 5 10 11 14 16 20 18 22 22 17 28 21 16 13 14 19 22 21 23 24 21 15 14 19 25 36 40 38 37 36 37 40 44 44 42 40 40
20 31 35 23 33 33 11 14 10 11 13 11 11 19 23 25 27 26 23 37 29 25 24 21 21 27 27 25 23 21 17 19 22 35 48 46 44 42 43 44 45 45 44 44
1 10 22 36 13 6 14 20 16 17 9 10 17 21 26 28 25 32 39 36 38 38 35 32 27 30 30 29 30 26 26 24 24 27 38 48 45 46 47 48 46 46 45 45
6 5 11 9 1 2 7 14 17 24 15 20 22 20 19 20 23 24 31 37 36 41 46 45 41 39 40 38 36 33 31 32 29 31 34 44 43 39 41 42 42 40 39 43
Wind_Direction
237 240 240 244 240 251 267 294 233 276 221 196 248 217 224 191 190 249 192 186 210 204 193 199 193 201 192 209 194 200 200 183 181 182 173 170 163 133 82 91 85 71 67 58
233 235 239 242 243 240 242 298 259 269 247 210 225 209 195 215 223 242 232 188 198 206 204 208 197 205 207 209 202 202 201 191 187 186 183 182 136 217 149 108 96 78 64 58
229 234 236 238 241 242 241 207 243 271 201 244 241 242 179 205 190 212 219 198 187 199 214 217 203 201 211 211 205 202 200 193 192 192 192 183 167 152 157 127 111 85 63 53
232 235 234 234 237 236 244 230 242 258 265 255 210 248 216 202 193 199 208 201 198 193 201 223 207 203 192 216 202 198 197 191 195 196 191 184 183 181 171 145 131 95 58 50
234 230 229 234 234 232 241 244 253 250 256 270 242 230 246 234 198 197 202 211 201 199 198 220 215 208 201 210 199 195 194 192 194 194 188 188 187 183 165 159 149 125 74 44
234 231 229 231 233 231 234 244 248 247 261 250 252 250 257 192 198 200 200 205 207 205 195 219 231 211 203 206 206 197 194 194 193 193 189 191 189 184 176 171 173 186 190 285
231 231 229 225 228 227 225 232 242 235 240 244 249 250 277 203 217 222 201 200 203 206 199 212 224 214 207 202 203 196 194 194 194 194 192 191 188 187 185 185 195 227 331 334
223 230 224 223 223 224 224 224 235 230 232 244 322 290 285 200 270 232 212 191 196 198 203 200 212 221 217 205 200 196 194 194 195 194 193 192 189 187 192 197 205 240 307 322
224 232 229 222 222 223 227 225 229 244 249 205 319 250 281 217 186 183 190 193 194 196 202 202 199 217 218 204 196 196 193 194 195 194 194 191 190 190 198 206 220 251 298 321
231 251 229 226 221 223 223 225 226 238 251 243 164 289 262 214 226 194 196 201 204 199 198 205 202 213 212 203 195 195 194 194 194 194 194 191 192 196 207 216 223 255 289 314
228 239 243 224 215 220 214 227 224 234 240 251 202 206 257 239 279 226 196 206 209 209 194 203 202 213 209 200 195 194 194 194 195 194 194 192 194 201 213 223 236 257 292 316
228 232 240 244 222 218 219 220 225 236 239 252 268 242 229 272 245 213 198 197 207 211 190 202 197 207 207 199 195 194 195 196 196 196 194 194 199 206 218 232 242 260 289 308
253 227 233 242 237 214 215 219 223 230 231 241 249 236 251 204 270 195 191 191 204 195 187 200 197 204 204 202 198 195 196 197 197 199 197 197 201 210 221 235 246 260 284 300
266 237 239 233 232 211 208 219 221 225 233 234 242 201 181 187 253 196 178 190 195 193 187 201 200 204 203 203 201 197 199 199 199 201 200 199 202 212 226 239 247 259 277 295
256 258 243 243 242 237 216 216 222 225 229 237 240 236 200 199 242 251 188 192 192 187 190 203 198 202 201 202 203 200 202 201 200 201 201 201 206 217 231 242 249 257 273 295
247 258 247 254 250 250 249 215 219 225 225 235 243 207 198 191 209 225 193 197 194 189 193 201 201 201 197 200 204 203 204 203 202 201 199 203 211 222 235 246 251 261 273 304
301 270 253 255 246 254 258 229 213 221 225 226 233 208 210 208 200 193 194 202 196 188 193 198 194 191 190 193 200 203 204 205 204 204 205 210 220 229 238 247 254 260 268 267
277 287 260 258 251 254 243 231 222 218 224 227 230 232 213 257 208 213 209 202 198 187 190 193 189 186 187 190 195 196 201 208 207 207 211 217 223 230 240 247 254 261 270 273
245 257 264 242 240 243 237 229 236 226 218 225 231 227 226 178 205 236 192 211 198 182 186 187 192 187 184 188 195 201 205 210 214 217 221 226 232 238 242 248 254 262 267 274
237 233 240 246 237 235 230 226 233 234 247 221 231 231 234 217 197 173 189 199 196 192 188 191 201 199 200 200 201 203 210 218 223 219 220 227 233 238 243 251 257 262 267 273
218 221 221 232 246 235 224 241 226 236 241 207 208 232 235 227 238 216 184 205 192 193 199 216 220 213 199 206 214 215 215 211 205 205 213 224 229 235 244 253 255 260 269 276
206 206 212 219 221 237 290 229 218 212 212 203 195 197 209 210 219 210 260 226 209 217 217 211 226 230 221 222 224 234 236 240 230 226 228 230 231 234 240 247 254 261 270 277
209 209 204 208 206 176 316 205 167 171 198 192 195 204 204 197 193 198 217 206 223 200 194 226 230 224 229 238 235 233 243 246 241 242 239 240 241 244 243 248 254 261 269 275
196 205 209 207 223 229 285 280 245 213 194 207 202 199 209 211 213 210 209 214 219 211 201 193 211 225 223 235 239 254 257 270 257 245 243 244 244 246 250 254 258 261 267 272
313 171 202 213 233 211 228 251 262 251 257 277 218 204 211 214 218 225 227 226 221 221 218 215 223 232 236 237 239 248 258 266 263 260 247 243 248 249 251 254 259 263 268 272
251 161 143 159 72 257 247 241 256 252 284 265 241 235 228 223 224 230 230 229 232 232 229 235 237 239 243 245 241 246 253 256 265 260 254 245 246 246 249 254 259 264 269 276